Regional Weather Roundup
Issued by NWS Sterling, VA

Home | Current Version | Previous Version | Text Only | Print | Product List | Glossary Off
Versions: 1 2 3 4 5 6 7 8 9 10 11 12 13 14 15 16 17 18 19 20 21 22 23 24 25 26 27 28 29 30 31 32 33 34 35 36 37 38 39 40 41 42 43 44 45 46 47 48 49 50

000
ASUS41 KLWX 280110
RWRLWX

REGIONAL WEATHER ROUNDUP
NATIONAL WEATHER SERVICE BALTIMORE MD/WASHINGTON DC
900 PM EDT THU AUG 27 2015

Note: "FAIR" indicates few or no clouds below 12,000 feet
with no significant weather and/or obstructions to visibility.
 TC=TEMPERATURE CELSIUS

 * =Non NWS site. Station does not report precipitation (e.g. rain,
    snow, etc.), thunder, or fog.

DCZ001-MDZ009-015-VAZ040>042-051-053>054-280200-
WASHINGTON METRO

CITY           SKY/WX    TMP DP  RH WIND       PRES   REMARKS
WASHINGTON NAT PTCLDY    75  56  51 NE7       30.12R
DULLES         PTCLDY    69  55  60 NE5       30.13R
ANDREWS AFB    PTCLDY    72  60  65 CALM      30.12R
FT BELVOIR     CLEAR     66  58  77 SE3       30.12R
QUANTICO       PTCLDY    68  62  81 NW8       30.12R
COLLEGE PARK*  CLEAR     68  59  73 CALM      30.12R
LEESBURG*      CLEAR     68  61  77 CALM      30.15R
MANASSAS*      CLEAR     68  57  68 CALM      30.13R
GAITHERSBURG*  CLEAR     64  54  68 CALM      30.18R

$$

MDZ006>007-011-014-280200-
BALTIMORE METRO

CITY           SKY/WX    TMP DP  RH WIND       PRES   REMARKS
BWI AIRPORT    PTCLDY    71  57  61 VRB3      30.12R
MD SCIENCE CTR   N/A     74  56  53 MISG      30.13R
MARTIN STATE   MOCLDY    72  61  68 CALM      30.14
ANNAPOLIS      PTCLDY    72  64  76 CALM      30.12R HAZE
FORT MEADE*    CLEAR     63  59  88 CALM      30.15R

$$

MDZ012-015-019>023-280200-
MARYLAND EASTERN SHORE

CITY           SKY/WX    TMP DP  RH WIND       PRES   REMARKS
OCEAN CITY     MOCLDY    70  62  76 CALM      30.10R
SALISBURY      MOCLDY    67  60  78 CALM      30.11R
BAY BRIDGE AP*   N/A     72  54  53 N3        30.12R
CAMBRIDGE*     CLEAR     64  57  77 CALM      30.11R
EASTON*        PTCLDY    68  61  77 CALM      30.15R

$$

MDZ017>025-280200-
SOUTHERN MARYLAND

CITY           SKY/WX    TMP DP  RH WIND       PRES   REMARKS
PATUXENT RIVER MOCLDY    63  60  90 SW3       30.11R
ST INIGOES     PTCLDY    66  62  87 CALM      30.10R
LEONARDTOWN*   PTCLDY    64  55  72 CALM      30.14R

$$

MDZ003>005-280200-
NORTH CENTRAL MARYLAND

CITY           SKY/WX    TMP DP  RH WIND       PRES   REMARKS
FREDERICK*     CLEAR     63  61  94 CALM      30.17R
HAGERSTOWN APT CLOUDY    71  54  54 N3        30.15R
WESTMINSTER*   CLOUDY    68  57  68 CALM      30.15R

$$

MDZ501>502-280200-
WESTERN MARYLAND

CITY           SKY/WX    TMP DP  RH WIND       PRES   REMARKS
OAKLAND*       FAIR      55  50  82 CALM      30.22R
CUMBERLAND*    FAIR      68  54  60 N3        30.20R

$$

VAZ025>031-280200-
SHENANDOAH VALLEY

CITY           SKY/WX    TMP DP  RH WIND       PRES   REMARKS
WINCHESTER*    CLOUDY    68  54  60 CALM      30.15R
FRONT ROYAL*   MOCLDY    64  55  72 CALM      30.14R
LURAY*         FAIR      66  55  68 E3        30.15R
NEW MARKET*    CLOUDY    69  55  61 N6        30.14R
STAUNTON*      CLOUDY    74  58  56 CALM      30.16R
WAYNESBORO*    CLOUDY    72  58  62 CALM      30.15R

$$

WVZ021-048>050-054>055-280200-
EASTERN WEST VIRGINIA PANHANDLE

CITY           SKY/WX    TMP DP  RH WIND       PRES   REMARKS
MARTINSBURG    CLEAR     63  55  75 CALM      30.15R
PETERSBURG*    CLOUDY    62  58  85 CALM      30.17R

$$

VAZ036>039-050-280200-
CENTRAL FOOTHILLS

CITY           SKY/WX    TMP DP  RH WIND       PRES   REMARKS
CHARLOTTESVILL CLOUDY    72  58  61 VRB5      30.13R
CULPEPER*      MOCLDY    63  60  90 CALM      30.14R
ORANGE*        CLOUDY    66  61  82 CALM      30.14R
GORDONSVILLE*  MOCLDY    67  62  83 CALM      30.12R
WARRENTON*     FAIR      62  59  90 CALM      30.13R

$$

VAZ055>057-280200-
NORTH AND CENTRAL PIEDMONT

CITY           SKY/WX    TMP DP  RH WIND       PRES   REMARKS
FREDERICKSBRG* CLEAR     69  60  74 CALM      30.11R
STAFFORD*      CLEAR     62  58  88 NW3       30.16R

$$

NCZ024-NYZ072-PAZ021-071-VAZ022-071-280200-
OTHER REGIONAL OBSERVATIONS

CITY           SKY/WX    TMP DP  RH WIND       PRES   REMARKS
NEW YORK CITY  CLEAR     74  50  42 NW6       30.12R
PHILADELPHIA   PTCLDY    75  52  44 NW7       30.12R
PITTSBURGH     CLOUDY    67  57  70 W3        30.17R
ROANOKE        MOCLDY    74  57  55 E5        30.14R
RICHMOND       PTCLDY    71  60  68 E5        30.11R
RALEIGH        MOCLDY    74  59  59 E5        30.09R

$$

ANZ530>537-280200-
MARINE OBSERVATIONS

STATION/POSITION TIME  TEMP    WIND        PRES
                       AIR SEA DIR/SP/G
                 (UTC) (F)     (DEG/KT/KT) (MB)
THOMAS PT LIGHT  NOT AVBL
BALT KEY BRIDGE  0000   75     350/  9/ 10 1018.9R
COVE POINT       0000   75      50/  3/  5 1019.6R
LEWISETTA        0000   76 80   80/  2/  3 1018.5R
SOLOMONS ISLAND  0000      82                N/A
PINEY POINT      0000           80/  3/  4   N/A

$$




USA.gov is the U.S. government's official web portal to all federal, state and local government web resources and services.